Погода Сытомино

Погода Сытомино : погода сейчас, прогноз погоды и архив. Всё, что Вы хотите узнать о погоде Сытомино!

Поиск расширенной информации на нашем сайте:

Другие новости

Новости СМИ2

Главная страница сайта

Новости сайта

03.07.2017

Напоминаем, что на нашем специализированном сайте Метеоцентр.Азия вы можете получить высокодетализированные автоматические прогнозы погоды по пунктам России, СНГ и мира в авиационном формате (включающие направление и скорость ветра, видимость, явления погоды, количество и форму облачности, нижнюю и верхнюю границу облачности).

Рекомендуем: художник

Погода Сытомино - сегодня

Время (UTC), дата Ветер
(°,м/с) 
Видим.   Явления Облачность Т
(°С)
Тd
(°С)
f(%) Тe
(°С)
Pmin
(гПа)
dP
(гПа)
Po
(мм)
O2
(г/м3)
Тmin Tmax R s Состояние
почвы
00 15.10.18 200 (Ю) 10 км  {ливн. осадки}  9/9 600 м кучево-дожд. 
[Cb cap]
-0.8 -2.3 90 -2  1017.3  760  307           
03 15.10.18 210 (ЮЗ) 10 км    10/10 600 м кучево-дожд. 
[Cb cap]
-0.7 -2.6 87 -2  1018.7  1.4  761  308  -0.9    0.3  <0.5  мокрый или
старый снег
50-90% 
06 15.10.18 240 (ЮЗ) 10 км    10/10 600 м 
[Sc]
+0.1 -2.3 84 -1  1019.7  0.9  762  306           
09 15.10.18 260 (З) 10 км    10/10 600 м 
[Sc]
+0.2 -3.4 77 -1  1020.4  0.7  762  307           
12 15.10.18 330 (СЗ) 10 км    10/10 600 м 
[Sc]
-0.4 -3.4 80 1021.6  1.2  763  308           
18 15.10.18 260 (З) 10 км    9/9 600 м 
[Sc]
-0.4 -1.6 92 -1  1022.7  0.3  764  308           
21 15.10.18 120 (ЮВ) 10 км    10/10 600 м 
[Sc]
-0.9 -4.4 77 1022.3  -0.4  764  309           
00 16.10.18 160 (Ю) 10 км    8/8 600 м 
[Sc]
-1.3 -2 95 -2  1021.4  -0.9  763  309           
03 16.10.18 180 (Ю) 4000 м  дымка  10/10 300 м 
[St]
-1.7 -2.1 97 -4  1020.9  -0.5  763  309  -2         
06 16.10.18 190 (Ю) 5{10}  10 км    9/9 300 м 
[St]
-0.5 -2.5 86 -4  1019.4  -1.5  761  308           
12 16.10.18 200 (Ю) 5{12}  10 км    10/10 600 м 
[Sc]
+0 -3 80 -3  1014.9  -2.2  758  306           
15 16.10.18 190 (Ю) 7-11{12}  10 км  слаб. ливневой снег  10/10 600 м кучево-дожд. 
[Cb cap]
-0.4 -2.3 87 -4  1012.4  -2.5  756  305    +0.3  0.0     
00 17.10.18 190 (Ю) 10 км  слаб. ливневой снег  10/10 300 м кучево-дожд. 
[Cb cap]
-0.6 -1.2 96 -3  1004.3  -3  750  303           
03 17.10.18 180 (Ю) 10 км  слаб. переохл. морось (гололёд){ливн. осадки} [диам. гололёда 0 мм]  10/10 300 м 
[St]
-0.4 -0.9 96 -3  1002  -2.3  748  302  -0.7    равномерный
мокрый или
старый снег
100% 
12 17.10.18 130 (ЮВ) 10 км  слаб. снег  10/10 300 м 
[Frnb|Ns]
-0.3 -0.7 97 -1  996.4  -1.3  744  300           
15 17.10.18 100 (В) 10 км  слаб. снег  10/10 300 м 
[Frnb|Ns]
-0.3 -0.6 98 -1  995.7  -0.6  744  300    -0.1  11     
18 17.10.18 080 (В) 10 км  слаб. снег  10/10 300 м 
[Frnb|Ns]
-0.3 -0.6 98 995.7  744  300           
21 17.10.18 030 (СВ) 10 км  слаб. снег  10/10 300 м 
[Frnb|Ns]
-0.6 -0.8 99 996.4  0.6  744  301           
00 18.10.18 360 (С) 10 км  {снег}  10/10 600 м 
[Sc]
-0.5 -0.7 99 -1  998  1.6  745  301           
03 18.10.18 360 (С) 10 км  слаб. снег  10/10 300 м 
[Frnb|Ns]
-0.2 -0.5 98 -1  999.9  1.9  747  301  -0.6    17  равномерный
сухой снег
100% 
06 18.10.18 020 (С) 10 км  слаб. снег  10/6 300 м средняя 
[Frnb|As op]
+0.3 -0.1 97 -1  1002.2  2.3  749  301           
09 18.10.18 020 (С) 10 км  {снег}  10/10 600 м 
[Sc]
+0.6 -0.3 94 -1  1004.4  2.1  750  302           
12 18.10.18 010 (С) 10 км  {снег}  10/10 600 м 
[Sc]
+0.3 -0.6 94 -1  1006.5  2.1  752  303           
18 18.10.18 010 (С) 10 км    10/10 600 м 
[Sc]
+0.1 -0.9 93 -2  1007.8  0.1  753  303           
21 18.10.18 360 (С) 10 км    10/10 300 м 
[St]
-0 -0.9 94 -1  1008.1  0.3  753  303           
Время (UTC), дата Ветер
(°,м/с) 
Видим.   Явления Облачность Т
(°С)
Тd
(°С)
f(%) Тe
(°С)
Pmin
(гПа)
dP
(гПа)
Po
(мм)
O2
(г/м3)
Тmin Tmax R s Состояние
почвы

Для получения пояснительной информации подведите курсор к названию столбца.

ПОГОДА Сытомино - архив

Всё, что Вы хотите узнать о погоде Сытомино - удобно и подробно!

Выберите нужную дату (начиная с 1 января 2015* года) и нажмите кнопку "Найти".
Будут отображены архивные сводки погоды по пункту Сытомино, начиная с указанной даты.


Отображать данные в формате CSV (для использования в таблицах Excel)


Внимание! Наш архив погоды предназначен исключительно для личного некоммерческого использования в познавательных целях. Если Вам необходимы официальные справки о состоянии погоды (для производственных, юридических, коммерческих и т.п. целей), обращайтесь в органы Росгидромета.

*Примечание: данная дата относится к архиву по метеостанциям СССР (Россия, СНГ, Балтия).
Архив по метеостанциям Зарубежной Европы и Азии (кроме Китая) хранится 10 дней, по другим регионам земного шара (Китай, Африка, Америка, Австралия, Океания) - 1 день.

Сытомино - район местоположения метеостанции


Название, широта, долгота, высота метеостанции:
Сытомино 61.3°ш. 71.3°д. 33 м над ур. моря [Российская Федерация]

Дополнительная информация

В oтличие oт бoльшинства пoгoдных сайтoв мы публикуем пoдрoбную метеoинфoрмацию в детальнoм прoфессиoнальнoм фoрмате.

Характеристики температуры и влажнoсти вoздуха измеряются на высoте 2 м в тени вдали oт зданий и деревьев.
Скoрoсть ветра измеряется на высoте 10 м (на урoвне рoста челoвека скoрoсть ветра ниже в 1.5-2 раза). Если метеoстанция нахoдится в гoрoде или в лесу, тo скoрoсть ветра занижена на 2-4 м/с пo сравнению с oткрытым местoм. Скoрoсть ветра над акватoриями крупных рек и oзёр, а также на вершинах хoлмoв на 2-5 м/с выше, чем в oбычных услoвиях.
Атмoсфернoе давление в разных тoчках местнoсти мoжет значительнo oтличаться oт давления на метеoстанции, в зависимoсти oт услoвий рельефа (при пoдъёме на 10 м давление пoнижается примернo на 1 мм рт.ст.).